| time (UTC) | temp C | wind direction | speed KPH | gust KPH | rain 1hr cm | rain 24hr cm | rain mn cm | humidity % | barometer mb |
| 20260506001539 | 18 | 191 | 3.2 | 16.1 | 0.00 | 0.00 | 0.00 | 67 | 1015.1 |
| 20260506000037 | 18 | 320 | 4.8 | 14.5 | 0.00 | 0.00 | 0.00 | 65 | 1015.2 |
| 20260505234536 | 17 | 302 | 4.8 | 16.1 | 0.00 | 0.00 | 0.00 | 67 | 1015.4 |
| 20260505233033 | 17 | 308 | 3.2 | 12.9 | 0.00 | 0.00 | 0.00 | 67 | 1015.6 |
| 20260505231533 | 17 | 236 | 6.4 | 12.9 | 0.00 | 0.00 | 0.00 | 67 | 1015.7 |
| 20260505230036 | 17 | 212 | 6.4 | 11.3 | 0.00 | 0.00 | 0.00 | 68 | 1015.8 |
| 20260505224530 | 16 | 197 | 6.4 | 11.3 | 0.00 | 0.00 | 0.00 | 70 | 1015.9 |
| 20260505223036 | 16 | 316 | 3.2 | 11.3 | 0.00 | 0.00 | 0.00 | 69 | 1016.1 |
| 20260505221525 | 16 | 214 | 4.8 | 12.9 | 0.00 | 0.00 | 0.00 | 72 | 1016.3 |
| 20260505220042 | 16 | 305 | 4.8 | 16.1 | 0.00 | 0.00 | 0.00 | 71 | 1016.1 |
| 20260505214530 | 16 | 247 | 3.2 | 8.0 | 0.00 | 0.00 | 0.00 | 72 | 1016.4 |
| 20260505213021 | 16 | 278 | 6.4 | 14.5 | 0.00 | 0.00 | 0.00 | 72 | 1016.4 |
| 20260505211520 | 16 | 263 | 1.6 | 11.3 | 0.00 | 0.00 | 0.00 | 72 | 1016.5 |
| 20260505210017 | 15 | 295 | 3.2 | 14.5 | 0.00 | 0.00 | 0.00 | 74 | 1016.5 |
| 20260505204515 | 15 | 230 | 3.2 | 11.3 | 0.00 | 0.00 | 0.00 | 75 | 1016.6 |
| 20260505203013 | 15 | 226 | 1.6 | 9.7 | 0.00 | 0.00 | 0.00 | 76 | 1016.6 |
| 20260505201510 | 14 | 253 | 6.4 | 16.1 | 0.00 | 0.00 | 0.00 | 77 | 1016.6 |
| 20260505200014 | 13 | 262 | 4.8 | 12.9 | 0.00 | 0.00 | 0.00 | 78 | 1016.6 |
| 20260505194506 | 13 | 251 | 4.8 | 14.5 | 0.00 | 0.00 | 0.00 | 78 | 1016.7 |
| 20260505193003 | 13 | 258 | 4.8 | 14.5 | 0.00 | 0.00 | 0.00 | 79 | 1016.6 |
| 20260505191609 | 13 | 195 | 6.4 | 11.3 | 0.00 | 0.00 | 0.00 | 80 | 1016.6 |
| 20260505190055 | 13 | 204 | 3.2 | 8.0 | 0.00 | 0.00 | 0.00 | 80 | 1016.7 |
| 20260505184557 | 12 | 220 | 6.4 | 14.5 | 0.00 | 0.00 | 0.00 | 81 | 1016.7 |
| 20260505183050 | 12 | 212 | 0.0 | 14.5 | 0.00 | 0.00 | 0.00 | 82 | 1016.6 |
| 20260505181555 | 13 | 169 | 3.2 | 9.7 | 0.00 | 0.00 | 0.00 | 82 | 1016.6 |
| 20260505180046 | 12 | 222 | 6.4 | 11.3 | 0.00 | 0.00 | 0.00 | 82 | 1016.5 |
| 20260505174547 | 12 | 204 | 4.8 | 11.3 | 0.00 | 0.00 | 0.00 | 83 | 1016.5 |
| 20260505173040 | 12 | 264 | 1.6 | 11.3 | 0.00 | 0.00 | 0.00 | 83 | 1016.4 |
| 20260505171539 | 12 | 212 | 1.6 | 9.7 | 0.00 | 0.00 | 0.00 | 83 | 1016.3 |
| 20260505170037 | 12 | 196 | 3.2 | 14.5 | 0.00 | 0.00 | 0.00 | 84 | 1016.2 |
| 20260505164535 | 12 | 218 | 4.8 | 12.9 | 0.00 | 0.00 | 0.00 | 84 | 1016.2 |
| 20260505163032 | 12 | 219 | 4.8 | 11.3 | 0.00 | 0.00 | 0.00 | 84 | 1016.1 |
| 20260505161540 | 12 | 234 | 3.2 | 9.7 | 0.00 | 0.00 | 0.00 | 85 | 1016.0 |
| 20260505153026 | 11 | 227 | 6.4 | 12.9 | 0.00 | 0.00 | 0.00 | 85 | 1015.9 |
| 20260505151523 | 11 | 177 | 3.2 | 12.9 | 0.00 | 0.00 | 0.00 | 86 | 1015.8 |
| 20260505124510 | 11 | 206 | 6.4 | 11.3 | 0.00 | 0.00 | 0.00 | 88 | 1014.5 |
| 20260505123002 | 11 | 194 | 1.6 | 4.8 | 0.00 | 0.00 | 0.00 | 88 | 1014.4 |
| 20260505121559 | 11 | 210 | 0.0 | 8.0 | 0.00 | 0.00 | 0.00 | 88 | 1014.3 |
| 20260505120104 | 11 | 210 | 6.4 | 12.9 | 0.00 | 0.00 | 0.00 | 89 | 1014.2 |
| 20260505114555 | 11 | 210 | 1.6 | 9.7 | 0.00 | 0.00 | 0.00 | 89 | 1014.2 |
| 20260505113108 | 11 | 207 | 3.2 | 6.4 | 0.00 | 0.00 | 0.00 | 89 | 1014.2 |
| 20260505111554 | 11 | 127 | 1.6 | 4.8 | 0.00 | 0.00 | 0.00 | 88 | 1014.2 |
| 20260505101552 | 11 | 216 | 3.2 | 9.7 | 0.00 | 0.00 | 0.00 | 89 | 1013.8 |
| 20260505100048 | 11 | 229 | 3.2 | 8.0 | 0.00 | 0.00 | 0.00 | 89 | 1013.8 |
| 20260505094547 | 11 | 187 | 3.2 | 19.3 | 0.00 | 0.00 | 0.00 | 89 | 1013.6 |
| 20260505093048 | 11 | 172 | 4.8 | 12.9 | 0.00 | 0.00 | 0.00 | 90 | 1013.5 |
| 20260505091544 | 11 | 235 | 3.2 | 12.9 | 0.00 | 0.00 | 0.00 | 90 | 1013.5 |
| 20260505090142 | 11 | 228 | 3.2 | 9.7 | 0.00 | 0.00 | 0.00 | 90 | 1013.4 |
| 20260505084551 | 11 | 220 | 1.6 | 6.4 | 0.00 | 0.00 | 0.00 | 90 | 1013.4 |
| 20260505083054 | 11 | 220 | 1.6 | 8.0 | 0.00 | 0.00 | 0.00 | 90 | 1013.3 |
| 20260505081542 | 10 | 210 | 1.6 | 4.8 | 0.00 | 0.00 | 0.00 | 90 | 1013.2 |
| 20260505080045 | 11 | 228 | 0.0 | 1.6 | 0.00 | 0.00 | 0.00 | 89 | 1013.2 |
| 20260505074536 | 11 | 206 | 0.0 | 3.2 | 0.00 | 0.00 | 0.00 | 89 | 1013.1 |
| 20260505073036 | 11 | 230 | 0.0 | 3.2 | 0.00 | 0.00 | 0.00 | 89 | 1012.9 |
| 20260505071543 | 11 | 230 | 0.0 | 4.8 | 0.00 | 0.00 | 0.00 | 88 | 1012.6 |
| 20260505070030 | 11 | 209 | 0.0 | 4.8 | 0.00 | 0.00 | 0.00 | 88 | 1012.6 |
| 20260505064533 | 11 | 232 | 1.6 | 6.4 | 0.00 | 0.00 | 0.00 | 87 | 1012.5 |
| 20260505063027 | 12 | 276 | 0.0 | 1.6 | 0.00 | 0.00 | 0.00 | 87 | 1012.4 |
| 20260505061529 | 12 | 301 | 0.0 | 0.0 | 0.00 | 0.00 | 0.00 | 86 | 1012.2 |
| 20260505060033 | 12 | 260 | 1.6 | 11.3 | 0.00 | 0.00 | 0.00 | 85 | 1012.1 |
| 20260505054522 | 12 | 268 | 3.2 | 12.9 | 0.00 | 0.00 | 0.00 | 84 | 1011.8 |
| 20260505053025 | 12 | 254 | 4.8 | 14.5 | 0.00 | 0.00 | 0.00 | 83 | 1011.8 |
| 20260505051520 | 13 | 236 | 1.6 | 8.0 | 0.00 | 0.00 | 0.00 | 82 | 1011.7 |
| 20260505041517 | 15 | 240 | 4.8 | 17.7 | 0.00 | 0.00 | 0.00 | 76 | 1011.1 |
| 20260505040017 | 15 | 236 | 11.3 | 24.1 | 0.00 | 0.00 | 0.00 | 74 | 1011.0 |
| 20260505034516 | 16 | 262 | 4.8 | 17.7 | 0.00 | 0.00 | 0.00 | 71 | 1010.8 |
| 20260505033019 | 16 | 289 | 11.3 | 22.5 | 0.00 | 0.00 | 0.00 | 69 | 1010.5 |
| 20260505031517 | 17 | 276 | 6.4 | 19.3 | 0.00 | 0.00 | 0.00 | 66 | 1010.3 |
| 20260505030015 | 18 | 251 | 8.0 | 16.1 | 0.00 | 0.00 | 0.00 | 63 | 1010.1 |
| 20260505024514 | 20 | 273 | 4.8 | 17.7 | 0.00 | 0.00 | 0.00 | 61 | 1009.9 |
| 20260505023014 | 20 | 281 | 8.0 | 17.7 | 0.00 | 0.00 | 0.00 | 59 | 1009.7 |
| 20260505021514 | 20 | 259 | 6.4 | 17.7 | 0.00 | 0.00 | 0.00 | 57 | 1009.7 |
| 20260505020017 | 21 | 285 | 9.7 | 19.3 | 0.00 | 0.00 | 0.00 | 54 | 1009.6 |
| 20260505014520 | 22 | 270 | 8.0 | 24.1 | 0.00 | 0.00 | 0.00 | 53 | 1009.7 |
| 20260505013011 | 22 | 251 | 12.9 | 20.9 | 0.00 | 0.00 | 0.00 | 53 | 1009.6 |
| 20260505011511 | 22 | 312 | 11.3 | 25.7 | 0.00 | 0.00 | 0.00 | 52 | 1009.6 |
| 20260505010010 | 23 | 305 | 12.9 | 25.7 | 0.00 | 0.00 | 0.00 | 52 | 1009.6 |
| 20260505004514 | 23 | 280 | 11.3 | 22.5 | 0.00 | 0.00 | 0.00 | 51 | 1009.5 |
| 20260505003005 | 23 | 308 | 11.3 | 17.7 | 0.00 | 0.00 | 0.00 | 51 | 1009.5 |